Regional Weather Roundup
Issued by NWS

Home | Current Version | Previous Version | Text Only | Print | Product List | Glossary Off
Versions: 1 2 3 4 5 6 7 8 9 10 11 12 13 14 15 16 17 18 19 20 21 22 23 24 25 26 27 28 29 30 31 32 33 34 35 36 37 38 39 40 41 42 43 44 45 46 47 48 49 50

000
ASUS43 KBIS 201010
RWRND

NORTH DAKOTA REGIONAL WEATHER ROUNDUP
NATIONAL WEATHER SERVICE BISMARCK ND
500 AM CDT THU JUL 20 2017

NOTE: "FAIR" INDICATES FEW OR NO CLOUDS BELOW 12,000 FEET WITH NO
SIGNIFICANT WEATHER AND/OR OBSTRUCTIONS TO VISIBILITY.


NDZ001>003-009>011-017-201100-
NORTHWEST NORTH DAKOTA

CITY           SKY/WX    TMP DP  RH WIND       PRES   REMARKS
WILLISTON        N/A    N/A N/A N/A MISG      29.95F
MINOT          PTCLDY    62  58  86 N3        30.00R
MINOT AFB      PTCLDY    58  57  97 N3        30.00R
$$

NDZ018>021-031>035-040>046-201100-
SOUTHWEST NORTH DAKOTA

CITY           SKY/WX    TMP DP  RH WIND       PRES   REMARKS
BISMARCK       PTCLDY    65  62  90 CALM      29.98R
DICKINSON      CLOUDY    64  58  80 S12       29.99S
GARRISON         N/A     64  60  87 E3        29.99S
HETTINGER ARPT CLOUDY    62  57  83 CALM      30.05S
$$

NDZ004>008-012>016-024-026-027-054-201100-
NORTHEAST NORTH DAKOTA

CITY           SKY/WX    TMP DP  RH WIND       PRES   REMARKS
GRAND FORKS    CLEAR     60  60 100 W8        29.96R
GRND FRKS AFB  CLEAR     58  58 100 NW8       29.98R
DEVILS LAKE    FOG       60  59  96 E5        29.99F VSB 1/4
$$

NDZ022-023-025-028>030-036>039-047>053-201100-
SOUTHEAST NORTH DAKOTA

CITY           SKY/WX    TMP DP  RH WIND       PRES   REMARKS
FARGO          CLOUDY    63  62  97 N7        29.95R
JAMESTOWN      PTCLDY    61  59  93 CALM      30.00R
$$





USA.gov is the U.S. government's official web portal to all federal, state and local government web resources and services.